GRUS-1B

operational
NORAD ID: 47934 Int'l Des: 2021-022 Owner: AXEL Country: J
LEOCIRCULARRETROGRADESSO

About GRUS-1B

Description loading...

Live Position

Loading 3D Globe...

Upcoming Passes

Altitude History

Altitude vs Time

uPlot chart will show altitude changes over time

Two-Line Element Set

1 47934U 21022C 26061.22815417 .00002469 00000-0 20975-3 0 9996
2 47934 97.5544 307.8614 0015128 327.3678 32.6609 14.98689581269872
Epoch: Mar 2, 2026 • Age: 39 hours

Current Status

Altitude 585.8 km
Velocity 7.57 km/s
Sub-Earth Point -63.35°S, 59.56°W
Launch Date Mar 22, 2021
Age 4.9 years
Type other

Technical Details

Classification Payload
Mass 80.00 kg
Dry Mass 80.00 kg
Total Mass 80.00 kg
Length 0.50 m
Diameter 0.50 m
Span 0.50 m
Shape Box
Manufacturer AXEL
Bus Type GRUS
Phase Status In Orbit
Owner/State AXEL/J

Large Constellations

Loading constellations...